User: anonymous   Login
Location: Cary
(35.7910°N, 78.7810°W)
Time: 12:41:50
(UTC-05:00)
Language:

N. Korean satellite - Orbit

View from above orbital plane
View from above orbital plane
View from above satellite
View from above satellite

Ground track
Ground track

The orbit data is extracted from the following two-line orbital elements,

1 39026U 12072A   22025.24009535  .00007045  00000-0  22454-3 0  9997
2 39026  97.2610  18.1764 0032120 315.3632  44.5024 15.32339787507026
Epoch (UTC): 25 January 2022 05:45:44
Eccentricity: 0.0032120
inclination: 97.2610°
perigee height: 447 km
apogee height: 491 km
right ascension of ascending node: 18.1764°
argument of perigee: 315.3632°
revolutions per day: 15.32339787
mean anomaly at epoch: 44.5024°
orbit number at epoch: 50702

The dashed part of the orbit path shows where the satellite is in the earth's shadow,  

DLR